Wind_Speed
3 4 4 4 4 4 3 3 4 4 3 4 5 6 6 6 7 6 6 6 5 6 6 6 5 5 5 6 7 7 7 7 7 7 8 7 7 7 7 7 7 7 7
4 4 5 4 4 4 4 4 4 4 4 5 5 6 6 7 7 6 6 6 6 6 6 6 6 6 6 6 7 7 7 7 7 7 8 8 8 8 7 8 8 9 8
4 5 5 5 5 5 5 4 4 4 4 4 5 6 6 7 6 6 6 6 7 7 7 6 6 6 6 7 7 7 8 8 8 8 8 8 8 9 8 9 10 10 10
5 5 6 5 5 5 5 5 5 4 4 5 5 6 6 6 6 6 6 6 7 7 7 7 7 7 7 7 7 7 8 9 9 9 9 9 10 10 9 10 11 11 11
5 5 6 6 6 6 6 6 5 5 5 5 6 6 6 6 7 7 7 7 7 8 7 8 7 8 8 8 8 8 9 9 9 9 9 10 10 11 11 11 11 12 12
5 6 6 6 6 6 6 6 5 6 6 6 6 7 7 7 7 7 8 8 8 8 8 8 8 7 8 9 9 9 10 10 10 10 10 10 10 11 12 12 13 13 13
5 6 6 6 6 7 7 6 6 6 6 7 7 7 7 7 7 8 8 9 9 9 9 9 9 8 8 9 9 10 10 11 11 11 11 11 11 11 12 13 13 13 13
6 6 6 6 6 6 7 7 7 7 8 8 9 8 8 8 8 9 9 9 9 9 9 10 10 10 10 9 9 10 10 11 11 11 12 12 12 12 13 13 13 14 13
6 7 7 7 7 8 8 9 9 9 9 9 9 9 10 10 10 10 10 11 11 10 10 11 11 10 10 11 11 11 11 12 13 13 13 12 11 12 13 14 14 14 15
7 7 7 8 8 8 9 9 9 9 9 9 9 10 10 10 10 10 11 11 11 11 11 11 11 11 11 11 12 12 13 13 12 13 13 14 13 12 13 14 14 15 15
7 7 8 8 9 10 10 10 10 10 10 10 10 10 10 11 10 11 11 11 11 11 12 12 12 12 12 12 13 13 13 13 13 13 14 14 14 14 13 14 15 15 16
7 7 8 9 9 10 10 10 10 10 11 11 11 10 11 11 11 11 11 11 11 11 12 12 13 13 13 14 14 14 14 14 14 14 14 14 14 14 14 14 15 15 16
8 8 8 8 8 9 9 11 11 12 12 12 11 11 11 12 12 11 11 12 12 12 12 12 13 13 14 14 14 14 14 15 15 15 14 14 15 15 14 14 15 15 16
9 9 9 9 9 9 10 11 12 12 13 13 12 12 12 12 12 12 12 12 12 12 12 12 13 14 14 14 14 14 14 15 15 15 14 15 15 15 15 15 15 15 16
9 10 10 10 10 10 10 11 12 13 13 14 13 13 13 13 13 13 12 13 14 14 14 14 14 14 14 14 14 15 15 15 15 15 15 15 16 16 16 16 16 15 16
10 10 10 10 10 11 11 12 13 14 13 14 14 14 14 14 13 13 13 13 14 14 14 15 15 15 14 14 15 15 15 15 15 15 15 15 16 16 17 16 16 17 17
11 10 10 11 11 11 11 12 13 14 14 14 14 14 14 14 14 15 14 14 14 15 15 14 15 15 15 16 16 16 15 15 15 15 15 15 16 16 17 17 17 17 17
11 11 11 11 11 12 12 13 13 14 14 14 14 14 14 15 15 15 15 14 14 15 15 15 15 16 16 16 16 16 16 16 16 15 15 16 16 16 17 17 17 18 18
11 11 12 12 12 13 13 13 14 14 14 14 14 14 15 15 15 15 15 15 15 14 15 16 16 16 16 16 16 16 15 16 16 16 16 17 17 16 17 17 17 17 17
12 13 13 13 13 13 14 14 14 14 15 14 14 15 16 16 16 15 15 15 15 15 15 16 16 16 16 16 16 16 16 16 16 16 17 17 17 17 17 18 18 18 18
14 13 13 14 14 14 14 14 14 15 15 15 16 16 16 16 16 15 15 15 15 15 15 16 17 17 16 16 16 16 16 16 16 17 17 17 17 18 18 18 18 18 18
13 13 14 15 15 15 16 16 16 16 16 16 16 16 16 16 16 16 16 16 17 16 16 16 16 17 17 16 16 16 16 17 17 17 17 17 18 18 18 18 18 18 19
14 14 15 15 16 16 16 17 17 16 16 17 17 16 17 16 16 17 17 17 17 17 17 17 17 17 17 17 17 16 16 16 17 17 17 17 17 18 18 19 19 19 20
14 15 15 16 16 16 16 17 17 16 16 17 16 17 16 17 17 17 17 17 18 18 18 18 17 17 17 17 17 17 16 16 16 16 17 17 17 17 18 19 19 19 19
15 15 16 16 16 16 16 16 17 17 17 17 17 17 17 17 17 17 17 17 18 18 18 18 18 17 17 17 17 17 17 17 17 17 17 17 17 17 18 18 18 18 18
15 15 16 16 16 16 16 16 17 17 17 17 18 18 17 17 18 18 18 18 18 18 18 18 18 17 17 17 17 17 17 17 17 17 17 17 18 18 18 18 18 18 18
Wind_Direction
253 247 251 253 259 268 274 277 268 257 241 237 234 231 232 233 231 232 235 234 235 235 237 238 240 241 221 208 206 208 216 215 220 212 212 210 211 210 211 210 211 213 213
267 261 259 264 270 278 276 279 274 263 256 247 236 236 239 241 240 240 242 240 241 241 242 242 242 237 220 213 215 218 219 218 221 219 220 218 219 220 221 220 222 219 222
276 263 262 269 277 279 276 276 277 274 268 259 251 247 247 248 247 244 247 248 249 249 247 245 240 236 224 218 219 224 224 224 225 223 222 222 224 227 228 225 222 223 228
273 267 267 270 271 274 275 276 277 275 269 266 265 263 257 254 251 248 249 254 255 251 252 248 244 238 231 228 230 227 230 232 231 228 227 229 231 231 231 230 227 227 231
275 272 272 270 268 269 277 283 280 273 275 274 271 267 264 258 254 252 252 253 256 255 254 249 245 241 237 232 231 231 234 238 235 229 234 237 239 242 241 239 236 236 238
274 273 274 267 263 265 273 278 278 280 279 275 277 272 264 260 257 254 254 255 257 257 254 252 249 244 243 242 243 243 240 240 237 237 240 243 244 246 244 244 242 243 244
279 276 274 271 266 266 270 276 280 282 281 279 282 278 269 267 266 260 257 257 259 261 258 255 251 245 247 248 246 244 244 244 246 248 250 251 251 249 247 247 245 242 244
276 277 275 273 272 269 270 272 275 279 281 282 283 282 277 277 276 272 265 263 262 261 260 258 252 249 252 254 251 250 249 248 251 255 256 256 254 252 249 251 249 245 247
279 277 277 272 272 271 272 277 282 284 289 289 284 282 281 281 279 276 273 268 265 264 261 258 256 256 256 257 254 253 253 254 256 259 261 259 257 254 250 250 249 249 251
278 279 278 275 273 272 274 279 283 286 289 290 286 282 281 281 280 278 277 273 269 267 264 259 258 257 255 255 255 258 258 257 258 258 260 261 260 257 254 252 251 252 253
283 282 280 277 275 275 277 277 281 284 287 288 289 284 279 278 278 278 277 274 272 268 265 261 259 260 258 257 257 259 261 262 260 259 260 260 260 260 259 258 254 252 253
287 288 285 285 283 277 276 278 281 283 284 285 286 284 278 278 278 275 273 271 270 268 267 265 261 259 260 261 262 263 263 262 260 259 260 261 261 261 261 261 256 254 255
290 293 293 290 289 286 282 282 283 284 286 285 284 283 280 276 274 273 274 272 269 268 267 267 264 262 261 262 262 263 263 261 259 259 261 262 262 262 262 261 258 257 257
293 294 293 292 289 287 287 286 288 289 288 288 285 282 280 276 272 271 272 272 273 270 268 267 266 264 261 262 263 263 264 262 262 259 259 260 261 261 261 261 261 260 260
299 298 295 291 289 288 288 289 290 291 288 287 286 284 281 280 276 273 273 273 273 272 270 270 269 268 263 265 267 266 264 264 262 262 260 259 258 258 259 260 262 263 263
299 298 297 294 291 291 291 290 292 290 289 288 286 286 284 284 282 276 275 276 276 275 273 272 270 271 269 269 269 267 266 264 263 261 259 260 260 260 259 260 262 261 263
300 298 299 299 297 295 293 292 294 294 290 288 287 286 285 284 283 279 276 277 278 276 274 273 272 271 270 271 271 269 266 264 263 262 261 261 260 260 259 259 261 262 263
299 298 298 299 299 299 297 297 297 296 294 293 291 286 284 284 284 281 278 279 277 276 274 272 272 274 273 270 270 269 265 264 264 263 262 261 260 259 260 261 261 263 264
300 301 299 299 300 299 299 299 299 297 295 294 291 288 286 285 284 283 279 278 278 276 275 273 273 274 274 270 268 267 266 266 264 263 262 262 261 260 261 262 263 264 265
300 299 299 300 300 301 299 298 298 297 294 293 291 290 289 287 284 282 281 279 277 277 276 276 275 274 273 271 269 267 267 267 264 263 262 261 261 261 261 261 262 264 265
293 296 299 300 302 302 302 300 298 296 294 292 290 288 287 286 284 283 282 281 279 277 277 278 277 274 273 271 269 268 268 268 265 265 263 262 263 262 261 261 261 263 263
293 294 298 300 301 301 301 300 299 294 292 291 289 286 283 281 281 281 281 280 279 278 276 277 277 275 272 270 269 269 269 268 266 267 266 265 265 264 263 263 263 263 264
292 295 298 300 302 301 301 300 299 295 292 290 288 286 282 279 280 279 281 281 280 278 276 276 275 276 272 270 268 269 269 268 268 269 270 268 267 266 265 264 264 265 265
293 296 298 298 299 300 301 301 300 297 293 290 286 286 283 279 279 280 281 281 280 277 275 274 274 274 273 269 268 268 268 268 269 270 271 271 270 267 267 266 265 265 266
290 294 296 297 299 299 300 301 301 299 294 290 287 286 284 281 279 281 281 281 280 277 274 273 273 273 273 269 268 269 268 268 270 271 270 270 271 270 270 268 265 266 267
292 292 294 296 298 300 301 302 302 300 296 291 288 286 283 281 281 282 281 281 279 276 273 271 271 271 273 270 268 268 268 268 269 271 271 271 270 270 271 269 268 269 267
Height
5857 5857 5857 5857 5858 5858 5858 5858 5858 5858 5858 5858 5859 5859 5860 5860 5860 5861 5861 5862 5862 5863 5863 5863 5863 5863 5863 5864 5865 5866 5867 5868 5869 5870 5871 5872 5873 5874 5875 5876 5878 5879 5880
5857 5857 5857 5857 5857 5857 5857 5857 5857 5857 5857 5858 5858 5858 5859 5859 5860 5860 5861 5861 5862 5862 5862 5862 5862 5862 5863 5864 5865 5866 5866 5867 5868 5869 5870 5871 5873 5874 5875 5876 5877 5878 5879
5856 5856 5856 5856 5856 5856 5856 5856 5856 5857 5857 5857 5857 5857 5858 5858 5859 5859 5860 5860 5861 5861 5861 5862 5861 5862 5862 5863 5864 5864 5865 5866 5867 5868 5869 5870 5872 5873 5874 5874 5876 5877 5878
5855 5855 5855 5855 5856 5856 5856 5856 5856 5856 5856 5856 5856 5857 5857 5857 5858 5859 5859 5860 5860 5860 5861 5861 5861 5861 5861 5862 5863 5864 5864 5865 5866 5867 5868 5869 5870 5871 5872 5873 5874 5876 5877
5855 5855 5855 5855 5855 5855 5855 5855 5855 5855 5855 5855 5856 5856 5856 5856 5857 5857 5858 5859 5859 5859 5859 5860 5860 5860 5861 5861 5862 5863 5863 5864 5865 5866 5867 5868 5869 5870 5871 5872 5873 5874 5875
5854 5854 5854 5854 5854 5854 5854 5854 5854 5854 5854 5855 5855 5855 5855 5855 5856 5856 5857 5857 5858 5858 5858 5859 5859 5859 5860 5860 5861 5861 5862 5863 5864 5865 5866 5867 5868 5869 5869 5870 5871 5872 5873
5853 5853 5853 5853 5853 5853 5853 5853 5853 5853 5853 5854 5854 5854 5854 5855 5855 5855 5856 5856 5857 5857 5857 5858 5858 5858 5859 5859 5859 5860 5861 5862 5863 5863 5864 5865 5866 5867 5868 5868 5869 5870 5871
5852 5852 5852 5852 5852 5852 5852 5852 5852 5852 5852 5852 5853 5853 5853 5853 5854 5854 5854 5855 5855 5856 5856 5856 5857 5857 5858 5858 5858 5858 5859 5860 5861 5862 5863 5863 5864 5865 5865 5866 5867 5868 5869
5851 5851 5851 5851 5851 5851 5851 5851 5851 5851 5851 5851 5851 5852 5852 5852 5852 5852 5852 5853 5853 5854 5854 5855 5855 5855 5856 5857 5857 5857 5858 5858 5859 5860 5861 5861 5862 5863 5863 5864 5865 5866 5867
5849 5849 5849 5850 5849 5849 5850 5850 5849 5849 5849 5849 5850 5850 5850 5850 5850 5851 5851 5851 5851 5852 5852 5853 5853 5853 5854 5854 5855 5855 5856 5856 5857 5858 5858 5859 5860 5860 5861 5862 5863 5863 5864
5848 5848 5848 5848 5848 5848 5848 5848 5848 5848 5848 5848 5848 5848 5848 5848 5848 5849 5849 5849 5849 5850 5850 5851 5851 5851 5852 5852 5852 5853 5854 5854 5855 5855 5856 5857 5857 5858 5859 5859 5860 5861 5861
5847 5846 5846 5846 5846 5846 5846 5846 5846 5846 5846 5846 5846 5846 5846 5846 5846 5847 5847 5847 5847 5848 5848 5848 5849 5849 5849 5850 5850 5851 5851 5852 5852 5853 5854 5854 5855 5855 5856 5857 5857 5858 5859
5845 5845 5844 5844 5844 5844 5844 5844 5844 5844 5844 5844 5844 5844 5844 5844 5844 5844 5845 5845 5845 5845 5845 5846 5846 5846 5847 5847 5847 5848 5848 5849 5850 5850 5851 5851 5852 5853 5853 5854 5854 5855 5856
5843 5843 5843 5843 5842 5842 5842 5842 5842 5842 5842 5841 5842 5841 5841 5841 5841 5842 5842 5842 5843 5843 5843 5843 5844 5844 5844 5844 5845 5845 5846 5846 5846 5847 5848 5848 5849 5850 5850 5851 5852 5852 5853
5842 5841 5841 5841 5841 5840 5840 5840 5840 5839 5839 5839 5839 5839 5839 5839 5839 5839 5839 5840 5840 5840 5840 5841 5841 5841 5841 5842 5842 5842 5843 5843 5843 5844 5845 5845 5846 5847 5847 5848 5849 5849 5850
5840 5840 5839 5839 5839 5838 5838 5838 5837 5836 5836 5836 5836 5836 5836 5836 5836 5836 5837 5837 5837 5837 5837 5838 5838 5838 5838 5839 5839 5839 5840 5840 5840 5841 5841 5842 5843 5844 5844 5845 5846 5846 5847
5839 5838 5837 5837 5836 5836 5836 5835 5835 5833 5833 5832 5833 5833 5833 5833 5833 5833 5833 5833 5834 5834 5834 5834 5835 5835 5835 5836 5836 5836 5836 5836 5837 5837 5838 5839 5840 5840 5841 5842 5842 5843 5843
5836 5836 5835 5835 5834 5834 5833 5833 5832 5831 5831 5830 5830 5830 5830 5830 5830 5830 5830 5830 5830 5831 5831 5831 5831 5832 5832 5832 5832 5833 5833 5833 5834 5834 5835 5835 5836 5837 5837 5838 5839 5839 5840
5834 5834 5833 5833 5832 5832 5831 5830 5830 5829 5828 5828 5827 5827 5827 5827 5826 5826 5826 5827 5827 5827 5827 5828 5828 5828 5828 5829 5829 5829 5829 5830 5830 5831 5831 5831 5832 5833 5833 5834 5835 5836 5836
5832 5831 5831 5830 5830 5829 5828 5827 5827 5826 5825 5824 5824 5824 5823 5823 5823 5823 5823 5823 5823 5824 5824 5824 5824 5824 5825 5825 5825 5826 5826 5826 5826 5827 5827 5827 5828 5829 5829 5830 5831 5831 5832
5829 5829 5828 5827 5827 5826 5825 5824 5823 5822 5822 5821 5820 5820 5820 5819 5819 5819 5819 5820 5820 5820 5820 5820 5820 5821 5821 5821 5822 5822 5822 5822 5823 5823 5823 5824 5824 5824 5825 5826 5826 5827 5828
5826 5826 5825 5824 5823 5822 5821 5820 5820 5819 5818 5817 5817 5816 5815 5815 5815 5815 5816 5816 5816 5816 5817 5817 5817 5817 5817 5817 5818 5818 5819 5819 5819 5819 5819 5820 5820 5820 5821 5821 5822 5823 5823
5823 5822 5821 5821 5820 5819 5818 5817 5815 5814 5814 5813 5812 5812 5811 5811 5811 5812 5812 5812 5812 5812 5813 5813 5813 5813 5813 5813 5813 5814 5815 5815 5815 5815 5815 5815 5815 5816 5816 5817 5817 5818 5819
5819 5819 5818 5817 5816 5815 5814 5813 5812 5811 5810 5809 5808 5807 5807 5807 5807 5807 5807 5808 5808 5808 5808 5809 5809 5809 5809 5809 5809 5809 5810 5810 5811 5811 5811 5811 5811 5811 5812 5812 5813 5813 5814
5816 5815 5815 5814 5813 5812 5811 5809 5808 5807 5806 5805 5804 5803 5803 5803 5803 5803 5803 5803 5803 5803 5804 5804 5804 5805 5805 5805 5805 5805 5806 5806 5806 5807 5807 5807 5807 5807 5807 5808 5808 5809 5809
5812 5812 5811 5810 5809 5808 5807 5806 5805 5803 5802 5801 5800 5799 5799 5799 5799 5799 5798 5799 5799 5799 5799 5799 5800 5800 5800 5801 5801 5801 5801 5802 5802 5802 5802 5803 5803 5803 5803 5803 5804 5804 5805